Weather History for New Orleans, LA

Change the Weather History Date:

Monday, November 14, 2011

  Actual Average Record
Temperature  
Mean Temperature 76 °F -  
Max Temperature 82 °F 70 °F 84 °F (1993)
Min Temperature 69 °F 51 °F 33 °F (1969)
Cooling Degree Days 10    
Growing Degree Days 26 (Base 50)    
Moisture  
Dew Point 68 °F    
Average Humidity 81    
Maximum Humidity 94    
Minimum Humidity 54    
Precipitation  
Precipitation 0.00 in - - ()
Sea Level Pressure  
Sea Level Pressure 30.00 in    
Wind  
Wind Speed 7 mph (SSE)    
Max Wind Speed 15 mph    
Max Gust Speed -    
Visibility 7 miles    
Events Fog , Rain    
Averages and records for this station are not official NWS values.
T = Trace of Precipitation, MM = Missing Value Source: NWS Daily Summary

Daily Weather History Graph

Daily Weather History Graph

Search for Another Location

Airport:

Trip Planner

Search our weather history database for the weather conditions in past years. The results will help you decide how hot, cold, wet, or windy it might be!

Date:

Astronomy

Nov. 14, 2011 Rise Set
Actual Time 6:25 AM CST 5:05 PM CST
Civil Twilight 5:59 AM CST 5:30 PM CST
Nautical Twilight 5:30 AM CST 5:59 PM CST
Astronomical Twilight 5:02 AM CST 6:27 PM CST
Moon 8:17 PM CST (11/14) 9:37 AM CST (11/14)
Length of Visible Light 11h 31m
Length of Day
10h 40m
Waning Gibbous, 86% of the Moon is Illuminated
Nov 14
Waning Gibbous
Nov 18
Last Quarter
Nov 25
New
Dec 2
First Quarter
Dec 10
Full

Hourly Weather History & Observations

Time (CST) Temp. Heat Index Dew Point Humidity Pressure Visibility Wind Dir Wind Speed Gust Speed Precip Events Conditions
12:53 AM 69.8 °F - 66.2 °F 88% 30.05 in 6.0 mi SSE 4.6 mph - N/A   Mostly Cloudy
1:53 AM 71.6 °F - 68.0 °F 88% 30.04 in 5.0 mi SSE 4.6 mph - 0.00 in   Overcast
2:53 AM 71.6 °F - 68.0 °F 88% 30.04 in 7.0 mi SSE 5.8 mph - 0.00 in   Mostly Cloudy
3:53 AM 71.6 °F - 68.0 °F 88% 30.09 in 7.0 mi SE 8.1 mph - N/A   Mostly Cloudy
4:53 AM 71.6 °F - 68.0 °F 88% 30.03 in 6.0 mi SSE 6.9 mph - N/A   Mostly Cloudy
5:53 AM 73.4 °F - 69.8 °F 88% 30.02 in 4.0 mi South 5.8 mph - N/A   Overcast
6:07 AM 73.4 °F - 69.8 °F 88% 30.02 in 0.5 mi South 4.6 mph - N/A Fog Fog
6:40 AM 73.4 °F - 69.8 °F 88% 30.02 in 0.2 mi South 3.5 mph - N/A Fog Fog
6:53 AM 73.4 °F - 69.8 °F 88% 30.02 in 0.2 mi SSE 5.8 mph - N/A Fog Fog
6:54 AM 71.6 °F - 68.0 °F 88% 30.01 in 0.2 mi SSE 4.6 mph - N/A   Overcast
7:44 AM 71.6 °F - 69.8 °F 94% 30.02 in 0.5 mi SSE 5.8 mph - N/A Fog Fog
7:53 AM 71.1 °F - 69.1 °F 93% 30.03 in 0.5 mi SSE 6.9 mph - N/A   Overcast
7:59 AM 71.6 °F - 69.8 °F 94% 30.02 in 1.5 mi SSE 6.9 mph - N/A   Overcast
8:09 AM 71.6 °F - 69.8 °F 94% 30.02 in 2.5 mi SSE 6.9 mph - N/A   Mostly Cloudy
8:13 AM 71.6 °F - 69.8 °F 94% 30.02 in 3.0 mi SSE 5.8 mph - N/A   Mostly Cloudy
8:53 AM 75.0 °F - 70.0 °F 84% 30.04 in 10.0 mi South 10.4 mph - N/A   Mostly Cloudy
9:53 AM 78.1 °F - 70.0 °F 76% 30.05 in 10.0 mi South 9.2 mph - N/A   Scattered Clouds
10:10 AM 78.8 °F - 69.8 °F 74% 30.04 in 10.0 mi South 8.1 mph - N/A   Mostly Cloudy
10:53 AM 80.1 °F 82.9 °F 69.1 °F 69% 30.04 in 10.0 mi SSW 9.2 mph - 0.00 in Rain Light Rain
11:14 AM 80.6 °F 83.2 °F 68.0 °F 65% 30.02 in 10.0 mi SSW 9.2 mph - 0.00 in   Mostly Cloudy
11:53 AM 82.0 °F 84.1 °F 66.0 °F 58% 30.00 in 10.0 mi South 15.0 mph - 0.00 in   Mostly Cloudy
12:53 PM 82.0 °F 83.8 °F 64.9 °F 56% 29.97 in 10.0 mi South 13.8 mph - N/A   Mostly Cloudy
1:53 PM 82.9 °F 84.6 °F 64.9 °F 54% 29.95 in 10.0 mi SSW 12.7 mph - N/A   Mostly Cloudy
2:53 PM 81.0 °F 82.7 °F 64.9 °F 58% 29.94 in 10.0 mi South 13.8 mph - N/A   Mostly Cloudy
3:53 PM 80.1 °F 82.1 °F 66.0 °F 62% 29.93 in 10.0 mi South 13.8 mph - N/A   Overcast
4:53 PM 77.0 °F - 66.0 °F 69% 29.94 in 10.0 mi South 12.7 mph - N/A   Mostly Cloudy
5:53 PM 73.9 °F - 66.0 °F 76% 29.96 in 10.0 mi South 8.1 mph - N/A   Mostly Cloudy
6:53 PM 72.0 °F - 66.0 °F 81% 29.96 in 10.0 mi SSE 6.9 mph - N/A   Scattered Clouds
7:53 PM 71.1 °F - 66.0 °F 84% 29.97 in 10.0 mi SSE 5.8 mph - N/A   Scattered Clouds
8:53 PM 72.0 °F - 68.0 °F 87% 29.97 in 9.0 mi ESE 5.8 mph - N/A   Scattered Clouds
9:53 PM 72.0 °F - 69.1 °F 91% 29.97 in 7.0 mi SE 6.9 mph - N/A   Mostly Cloudy
10:53 PM 72.0 °F - 69.1 °F 91% 29.96 in 7.0 mi ESE 4.6 mph - N/A   Mostly Cloudy
11:53 PM 73.0 °F - 69.1 °F 87% 29.96 in 10.0 mi SE 5.8 mph - N/A   Overcast